Find Yaogan 31 hao 03 zu 01 xing

NORAD ID: 47691 Int'l Des: 2021-014 Owner: ZLZB Country: CN Constellation: yaogan operational
LEO

Current View

Loading 3D Globe...

About Yaogan 31 hao 03 zu 01 xing

Description loading...

Upcoming Passes

Passes for default location (London). Set your location on the main map for personalized predictions.

Altitude History

Loading altitude history...

Two-Line Element Set

1 47691U 21014A 26150.84835175 -.00000027 00000-0 97016-4 0 9997
2 47691 63.4044 242.4083 0175545 0.5838 359.5361 13.45448163258448
Epoch: May 30, 2026 • Age: 5 hours

Current Status

Altitude 974.6 km
Velocity 7.42 km/s
Sub-Earth Point 25.26°N, 20.89°W
Launch Date Feb 24, 2021
Age 5.2 years
Type military

Technical Details

Classification Payload
Mass 500.00 kg
Dry Mass 500.00 kg
Total Mass 500.00 kg
Length 0.50 m
Diameter 0.50 m
Span 1.00 m
Shape Box + 2 Pan
Manufacturer DFHZ
Bus Type JB-8B
Phase Status In Orbit
Owner/State ZLZB/CN

Most Searched